Previsão horária em Allassac

Hoje, 25 Janeiro, Segunda-feira

Tempo Temperatura Precipitação Vento Pressão Humidade
00:00 +4°C° 0 mm 2 m/s 728 mmHg 96%
01:00 +4°C° 0.1 mm 2 m/s 728 mmHg 96%
02:00 +4°C° 0.1 mm 1 m/s 728 mmHg 96%
03:00 +4°C° 0.1 mm 1 m/s 729 mmHg 95%
04:00 +3°C° 0 mm 1 m/s 729 mmHg 96%
05:00 +2°C° 0 mm 0 m/s 729 mmHg 96%
06:00 +2°C° 0 mm 0 m/s 729 mmHg 97%
07:00 +3°C° 0 mm 0 m/s 729 mmHg 96%
08:00 +3°C° 0 mm 0 m/s 730 mmHg 94%
09:00 +3°C° 0 mm 0 m/s 730 mmHg 93%
10:00 +5°C° 0.1 mm 1 m/s 730 mmHg 88%
11:00 +6°C° 0.1 mm 1 m/s 731 mmHg 82%
12:00 +5°C° 0.1 mm 2 m/s 731 mmHg 77%
13:00 +5°C° 0 mm 2 m/s 731 mmHg 75%
14:00 +5°C° 0 mm 2 m/s 732 mmHg 74%
15:00 +5°C° 0 mm 2 m/s 732 mmHg 73%
16:00 +4°C° 0 mm 2 m/s 733 mmHg 79%
17:00 +2°C° 0 mm 2 m/s 734 mmHg 85%
18:00 +1°C° 0 mm 1 m/s 734 mmHg 91%
19:00 +1°C° 0 mm 1 m/s 735 mmHg 92%
20:00 0°C° 0 mm 1 m/s 736 mmHg 93%
21:00 0°C° 0 mm 1 m/s 737 mmHg 94%
22:00 0°C° 0 mm 1 m/s 738 mmHg 94%
23:00 -1°C° 0 mm 1 m/s 738 mmHg 94%

Amanhã, 26 Janeiro, Terça-feira

Tempo Temperatura Precipitação Vento Pressão Humidade
00:00 -1°C° 0 mm 1 m/s 739 mmHg 95%
01:00 -1°C° 0 mm 1 m/s 739 mmHg 94%
02:00 -1°C° 0 mm 1 m/s 739 mmHg 94%
03:00 -1°C° 0 mm 1 m/s 740 mmHg 94%
04:00 -2°C° 0 mm 0 m/s 740 mmHg 92%
05:00 -2°C° 0 mm 0 m/s 740 mmHg 91%
06:00 -2°C° 0 mm 0 m/s 741 mmHg 89%
07:00 -1°C° 0 mm 0 m/s 741 mmHg 84%
08:00 0°C° 0 mm 0 m/s 741 mmHg 79%
09:00 +1°C° 0 mm 0 m/s 741 mmHg 74%
10:00 +2°C° 0 mm 0 m/s 741 mmHg 65%
11:00 +4°C° 0 mm 0 m/s 741 mmHg 57%
12:00 +5°C° 0 mm 0 m/s 741 mmHg 48%
13:00 +5°C° 0 mm 0 m/s 741 mmHg 48%
14:00 +5°C° 0 mm 0 m/s 740 mmHg 49%
15:00 +5°C° 0 mm 0 m/s 740 mmHg 49%
16:00 +4°C° 0 mm 0 m/s 740 mmHg 53%
17:00 +3°C° 0 mm 0 m/s 740 mmHg 57%
18:00 +2°C° 0 mm 0 m/s 740 mmHg 61%
19:00 +2°C° 0 mm 0 m/s 740 mmHg 61%
20:00 +2°C° 0 mm 0 m/s 740 mmHg 62%
21:00 +2°C° 0 mm 0 m/s 740 mmHg 62%
22:00 +2°C° 0 mm 1 m/s 740 mmHg 62%
23:00 +2°C° 0 mm 1 m/s 740 mmHg 63%

Depois de amanhã, 27 Janeiro, Quarta-feira

Tempo Temperatura Precipitação Vento Pressão Humidade
00:00 +2°C° 0 mm 1 m/s 740 mmHg 63%
01:00 +2°C° 0 mm 1 m/s 740 mmHg 62%
02:00 +2°C° 0 mm 1 m/s 739 mmHg 62%
03:00 +2°C° 0 mm 1 m/s 739 mmHg 61%
04:00 +2°C° 0 mm 1 m/s 739 mmHg 62%
05:00 +2°C° 0 mm 1 m/s 739 mmHg 63%
06:00 +3°C° 0 mm 1 m/s 739 mmHg 64%
07:00 +3°C° 0 mm 1 m/s 739 mmHg 65%
08:00 +3°C° 0 mm 1 m/s 739 mmHg 66%
09:00 +4°C° 0 mm 1 m/s 739 mmHg 66%
10:00 +5°C° 0 mm 1 m/s 739 mmHg 69%
11:00 +4°C° 0 mm 0 m/s 740 mmHg 71%
12:00 +5°C° 0 mm 0 m/s 740 mmHg 73%
13:00 +5°C° 0 mm 0 m/s 739 mmHg 76%
14:00 +6°C° 0 mm 0 m/s 739 mmHg 80%
15:00 +6°C° 0 mm 0 m/s 739 mmHg 83%
16:00 +6°C° 0.1 mm 0 m/s 739 mmHg 87%
17:00 +6°C° 0.1 mm 1 m/s 739 mmHg 91%
18:00 +6°C° 0.1 mm 1 m/s 740 mmHg 96%
19:00 +6°C° 0.5 mm 1 m/s 740 mmHg 97%
20:00 +6°C° 0.5 mm 1 m/s 739 mmHg 98%
21:00 +6°C° 0.5 mm 1 m/s 739 mmHg 99%
22:00 +7°C° 0.2 mm 1 m/s 739 mmHg 99%
23:00 +8°C° 0.2 mm 1 m/s 739 mmHg 99%

28 Janeiro, Quinta-feira

Tempo Temperatura Precipitação Vento Pressão Humidade
00:00 +9°C° 0.2 mm 1 m/s 739 mmHg 99%
01:00 +9°C° 0.1 mm 1 m/s 739 mmHg 99%
02:00 +9°C° 0.1 mm 2 m/s 739 mmHg 99%
03:00 +9°C° 0.1 mm 2 m/s 738 mmHg 99%
04:00 +10°C° 0.3 mm 2 m/s 738 mmHg 98%
05:00 +10°C° 0.3 mm 2 m/s 738 mmHg 98%
06:00 +10°C° 0.3 mm 2 m/s 738 mmHg 98%
07:00 +10°C° 0.3 mm 2 m/s 738 mmHg 98%
08:00 +10°C° 0.3 mm 3 m/s 738 mmHg 98%
09:00 +11°C° 0.3 mm 3 m/s 738 mmHg 97%
10:00 +11°C° 1.1 mm 3 m/s 738 mmHg 97%
11:00 +11°C° 1.1 mm 3 m/s 738 mmHg 97%
12:00 +11°C° 1.1 mm 3 m/s 739 mmHg 97%
13:00 +12°C° 0.4 mm 2 m/s 738 mmHg 98%
14:00 +12°C° 0.4 mm 2 m/s 738 mmHg 98%
15:00 +12°C° 0.4 mm 1 m/s 738 mmHg 98%
16:00 +12°C° 0.5 mm 1 m/s 738 mmHg 98%
17:00 +12°C° 0.5 mm 1 m/s 738 mmHg 99%
18:00 +12°C° 0.5 mm 1 m/s 738 mmHg 99%
19:00 +12°C° 0.4 mm 2 m/s 738 mmHg 98%
20:00 +12°C° 0.4 mm 2 m/s 738 mmHg 98%
21:00 +12°C° 0.4 mm 2 m/s 738 mmHg 98%
22:00 +12°C° 0.4 mm 2 m/s 738 mmHg 98%
23:00 +12°C° 0.4 mm 2 m/s 738 mmHg 97%

29 Janeiro, Sexta-feira

Tempo Temperatura Precipitação Vento Pressão Humidade
00:00 +10°C° 0.4 mm 2 m/s 737 mmHg 97%
01:00 +10°C° 0 mm 2 m/s 737 mmHg 97%
02:00 +11°C° 0 mm 1 m/s 736 mmHg 97%
03:00 +11°C° 0 mm 1 m/s 736 mmHg 97%
04:00 +10°C° 0 mm 1 m/s 736 mmHg 97%
05:00 +10°C° 0 mm 1 m/s 735 mmHg 97%
06:00 +10°C° 0 mm 1 m/s 735 mmHg 98%
07:00 +10°C° 0 mm 1 m/s 735 mmHg 97%
08:00 +10°C° 0 mm 1 m/s 735 mmHg 96%
09:00 +10°C° 0 mm 1 m/s 734 mmHg 95%
10:00 +11°C° 0.1 mm 1 m/s 734 mmHg 94%
11:00 +12°C° 0.1 mm 1 m/s 733 mmHg 93%
12:00 +12°C° 0.1 mm 2 m/s 733 mmHg 91%
13:00 +12°C° 0.4 mm 2 m/s 732 mmHg 92%
14:00 +13°C° 0.4 mm 2 m/s 732 mmHg 92%
15:00 +13°C° 0.4 mm 2 m/s 731 mmHg 93%
16:00 +12°C° 0.7 mm 2 m/s 730 mmHg 94%
17:00 +12°C° 0.7 mm 2 m/s 730 mmHg 95%
18:00 +12°C° 0.7 mm 2 m/s 730 mmHg 95%
19:00 +10°C° 0.2 mm 3 m/s 730 mmHg 93%
20:00 +10°C° 0.2 mm 4 m/s 730 mmHg 91%
21:00 +8°C° 0.2 mm 5 m/s 730 mmHg 89%
22:00 +7°C° 0 mm 4 m/s 731 mmHg 89%
23:00 +8°C° 0 mm 3 m/s 732 mmHg 89%

30 Janeiro, Sábado

Tempo Temperatura Precipitação Vento Pressão Humidade
00:00 +7°C° 0 mm 3 m/s 733 mmHg 89%
01:00 +6°C° 0 mm 2 m/s 733 mmHg 92%
02:00 +6°C° 0 mm 2 m/s 732 mmHg 94%
03:00 +6°C° 0 mm 1 m/s 732 mmHg 97%
04:00 +6°C° 0 mm 1 m/s 732 mmHg 97%
05:00 +7°C° 0 mm 1 m/s 731 mmHg 97%
06:00 +7°C° 0 mm 1 m/s 731 mmHg 98%
07:00 +7°C° 0 mm 1 m/s 732 mmHg 97%
08:00 +7°C° 0 mm 1 m/s 732 mmHg 96%
09:00 +8°C° 0 mm 1 m/s 732 mmHg 95%
10:00 +8°C° 0.1 mm 1 m/s 733 mmHg 92%
11:00 +9°C° 0.1 mm 1 m/s 733 mmHg 89%
12:00 +8°C° 0.1 mm 2 m/s 733 mmHg 85%
13:00 +8°C° 0.1 mm 2 m/s 733 mmHg 83%
14:00 +9°C° 0.1 mm 2 m/s 733 mmHg 81%
15:00 +9°C° 0.1 mm 2 m/s 733 mmHg 79%
16:00 +8°C° 0.1 mm 2 m/s 733 mmHg 84%
17:00 +7°C° 0.1 mm 2 m/s 734 mmHg 89%
18:00 +5°C° 0.1 mm 2 m/s 734 mmHg 95%
19:00 +6°C° 0.1 mm 1 m/s 735 mmHg 95%
20:00 +6°C° 0.1 mm 1 m/s 735 mmHg 95%
21:00 +6°C° 0.1 mm 1 m/s 736 mmHg 96%
22:00 +5°C° 0 mm 1 m/s 736 mmHg 96%
23:00 +4°C° 0 mm 1 m/s 736 mmHg 97%
Mostrar mais

Necessitamos do seu Consentimento

A Meteoprog e os seus Fornecedores de Serviços podem armazenar e aceder a dados pessoais como cookies, identificadores do dispositivo ou outras tecnologias semelhantes existentes no seu dispositivo e processar estes dados para personalizar conteúdos e anúncios, assim como funcionalidades nas redes sociais e análise de tráfego.

  • Armazenar e/ou aceder a informações no seu dispositivo

    Os cookies, identificadores do dispositivo ou outras informações podem ser armazenados ou acedidos no seu dispositivo, para os fins acima indicados.

  • Anúncios e conteúdos personalizados, medição de anúncios e conteúdos, dados sobre o público-alvo e desenvolvimento de produtos

    Os anúncios e os conteúdos podem ser personalizados com base num perfil. Podem ser adicionados dados adicionais para uma maior personalização dos anúncios e dos conteúdos. A eficácia dos anúncios e dos conteúdos pode ser medida. Podem ser obtidas informações sobre o público que visualizou os anúncios e os conteúdos. Estes dados podem ser usados para desenvolver ou melhorar sistemas, softwares ou a experiência do utilizador.

Ao clicar em "Eu concordo”, permitirá o uso de cookies, identificadores do dispositivo e web beacons mencionados ou outras tecnologias semelhantes. As configurações do navegador do seu dispositivo podem ser alteradas.

Para certos fins, podem ser invocados interesses legítimos ao invés de consentimento. Pode ler mais informação sobre este assunto na nossa Política de Privacidade e Cookies.